Little Rock, AR

12:45 AM CDT on June 29, 2017 (GMT -0500)
Adams

Weather History for KLIT - July, 2003

Change the Weather History Date:

Friday, July 11, 2003

  Actual Average Record
Temperature  
Mean Temperature 82 °F 83 °F  
Max Temperature 93 °F 92 °F 106 °F (1930)
Min Temperature 72 °F 73 °F 57 °F (1963)
Degree Days  
Heating Degree Days 0 0  
Month to date heating degree days 0  
Since 1 June heating degree days 0  
Since 1 July heating degree days 0  
Cooling Degree Days 16 18  
Month to date cooling degree days 191  
Year to date cooling degree days 897  
Since 1 June cooling degree days 616  
Growing Degree Days 32 (Base 50)    
Moisture  
Dew Point 69 °F    
Average Humidity 69    
Maximum Humidity 100    
Minimum Humidity 39    
Precipitation  
Precipitation 0.00 in 0.11 in 2.48 in (1903)
Month to date precipitation 1.23  
Year to date precipitation 26.78  
Snow  
Snow 0.00 in 0.00 in - ()
Month to date snowfall 0.0  
Since 1 June snowfall 0.0  
Since 1 July snowfall 0.0  
Snow Depth -    
Sea Level Pressure  
Sea Level Pressure 30.03 in    
Wind  
Wind Speed 6 mph (SSW)    
Max Wind Speed 8 mph    
Max Gust Speed -    
Visibility 8 miles    
Events      
T = Trace of Precipitation, MM = Missing Value Source: NWS Daily Summary

Daily Weather History Graph

Daily Weather History Graph

Search for Another Location

Airport or City:

Trip Planner

Search our weather history database for the weather conditions in past years. The results will help you decide how hot, cold, wet, or windy it might be!

Date:

Astronomy

Jul. 11, 2003 Rise Set
Actual Time 6:04 AM CDT 8:24 PM CDT
Civil Twilight 5:35 AM CDT 8:53 PM CDT
Nautical Twilight 4:59 AM CDT 9:28 PM CDT
Astronomical Twilight 4:20 AM CDT 10:07 PM CDT
Moon 6:46 PM CDT (7/11) 3:37 AM CDT (7/11)
Length of Visible Light 15h 18m
Length of Day
14h 19m
Waxing Gibbous, 94% of the Moon is Illuminated
Jul 11
Waxing Gibbous
Jul 13
Full
Jul 21
Last Quarter
Jul 29
New
Aug 5
First Quarter

Hourly Weather History & Observations

Time (CDT) Temp. Heat Index Dew Point Humidity Pressure Visibility Wind Dir Wind Speed Gust Speed Precip Events Conditions
12:53 AM 75.9 °F - 73.9 °F 94% 30.00 in 7.0 mi WSW 8.1 mph - N/A   Clear
1:53 AM 75.0 °F - 73.9 °F 96% 29.98 in 7.0 mi WSW 6.9 mph - N/A   Clear
2:53 AM 73.9 °F - 73.9 °F 100% 29.97 in 7.0 mi West 6.9 mph - N/A   Clear
3:53 AM 73.0 °F - 73.0 °F 100% 29.97 in 7.0 mi WSW 6.9 mph - N/A   Clear
4:53 AM 73.0 °F - 73.0 °F 100% 29.99 in 7.0 mi WSW 5.8 mph - N/A   Clear
5:53 AM 72.0 °F - 72.0 °F 100% 30.01 in 6.0 mi Calm Calm - N/A   Clear
6:53 AM 73.0 °F - 73.0 °F 100% 30.02 in 6.0 mi SW 3.5 mph - N/A   Clear
7:53 AM 78.1 °F - 75.0 °F 90% 30.06 in 7.0 mi WNW 6.9 mph - N/A   Clear
8:53 AM 82.0 °F 86.3 °F 71.1 °F 69% 30.07 in 10.0 mi North 6.9 mph - N/A   Clear
9:53 AM 84.0 °F 88.4 °F 70.0 °F 63% 30.07 in 10.0 mi North 5.8 mph - N/A   Clear
10:53 AM 87.1 °F 89.2 °F 66.0 °F 49% 30.09 in 10.0 mi East 8.1 mph - N/A   Clear
11:53 AM 88.0 °F 90.7 °F 66.9 °F 49% 30.09 in 10.0 mi NE 6.9 mph - N/A   Clear
12:53 PM 90.0 °F 92.4 °F 66.0 °F 45% 30.08 in 10.0 mi NNE 4.6 mph - N/A   Clear
1:53 PM 91.0 °F 92.6 °F 64.0 °F 41% 30.05 in 10.0 mi Variable 4.6 mph - N/A   Clear
2:53 PM 91.9 °F 93.3 °F 64.0 °F 39% 30.03 in 10.0 mi Variable 6.9 mph - N/A   Clear
3:53 PM 91.9 °F 93.3 °F 64.0 °F 39% 30.01 in 10.0 mi ESE 5.8 mph - N/A   Clear
4:53 PM 91.9 °F 93.3 °F 64.0 °F 39% 30.00 in 10.0 mi SSE 5.8 mph - N/A   Clear
5:53 PM 90.0 °F 91.7 °F 64.9 °F 43% 30.00 in 10.0 mi Variable 4.6 mph - N/A   Clear
6:53 PM 89.1 °F 91.3 °F 66.0 °F 46% 30.00 in 10.0 mi SSE 4.6 mph - N/A   Clear
7:53 PM 86.0 °F 90.1 °F 69.1 °F 57% 30.01 in 10.0 mi SSE 5.8 mph - N/A   Clear
8:53 PM 82.0 °F 85.5 °F 69.1 °F 65% 30.02 in 10.0 mi South 5.8 mph - N/A   Partly Cloudy
9:53 PM 81.0 °F 84.1 °F 69.1 °F 67% 30.04 in 7.0 mi Calm Calm - N/A   Clear
10:53 PM 79.0 °F - 69.1 °F 72% 30.04 in 7.0 mi Calm Calm - N/A   Clear
11:53 PM 75.9 °F - 70.0 °F 82% 30.02 in 7.0 mi Calm Calm - N/A   Clear